Time,TemperatureF,DewpointF,PressureIn,WindDirection,WindDirectionDegrees,WindSpeedMPH,WindSpeedGustMPH,Humidity,HourlyPrecipIn,Conditions,Clouds,dailyrainin,SoftwareType,DateUTC
2013-09-15 14:22:00,77.0,68.0,29.97,South,173,0.0,0.0,74,0.00,,,0.18,,2013-09-15 19:22:00,
2013-09-15 14:52:00,75.0,67.0,29.98,South,173,0.0,0.0,76,0.00,,,0.18,,2013-09-15 19:52:00,
2013-09-15 15:11:00,74.0,67.0,29.98,South,173,0.0,0.0,78,0.00,,,0.18,,2013-09-15 20:11:00,
2013-09-15 15:22:00,74.0,67.0,29.99,South,173,0.0,0.0,79,0.00,,,0.18,,2013-09-15 20:22:00,
2013-09-15 15:53:00,72.0,66.0,30.01,South,173,0.0,0.0,82,0.00,,,0.18,,2013-09-15 20:53:00,
2013-09-15 16:11:00,71.0,65.0,30.01,South,173,0.0,0.0,82,0.00,,,0.18,,2013-09-15 21:11:00,
2013-09-15 16:21:00,69.0,64.0,30.03,South,173,0.0,0.0,83,0.00,,,0.18,,2013-09-15 21:21:00,
2013-09-15 16:44:00,69.0,64.0,30.03,South,173,0.0,0.0,84,0.00,,,0.18,,2013-09-15 21:44:00,
2013-09-15 16:54:00,69.0,64.0,30.03,South,173,0.0,0.0,84,0.00,,,0.18,,2013-09-15 21:54:00,
2013-09-15 17:14:00,69.0,64.0,30.03,South,173,0.0,0.0,84,0.00,,,0.18,,2013-09-15 22:14:00,
2013-09-15 17:23:00,69.0,65.0,30.03,South,173,0.0,0.0,87,0.02,,,0.20,,2013-09-15 22:23:00,
2013-09-15 17:53:00,68.0,65.0,30.03,South,173,0.0,0.0,89,0.02,,,0.20,,2013-09-15 22:53:00,
2013-09-15 18:12:00,68.0,65.0,30.04,South,173,0.0,0.0,89,0.02,,,0.20,,2013-09-15 23:12:00,
2013-09-15 18:22:00,68.0,65.0,30.04,South,173,0.0,0.0,89,0.02,,,0.20,,2013-09-15 23:22:00,
2013-09-15 18:52:00,68.0,64.0,30.05,South,173,0.0,0.0,87,0.00,,,0.20,,2013-09-15 23:52:00,
2013-09-15 19:11:00,68.0,64.0,30.06,South,173,0.0,0.0,87,0.00,,,0.20,,2013-09-16 00:11:00,
2013-09-15 19:22:00,67.0,63.0,30.06,South,173,0.0,0.0,87,0.00,,,0.20,,2013-09-16 00:22:00,
2013-09-15 19:42:00,67.0,63.0,30.07,South,173,0.0,0.0,86,0.00,,,0.20,,2013-09-16 00:42:00,
2013-09-15 19:52:00,67.0,62.0,30.08,South,173,0.0,0.0,85,0.00,,,0.20,,2013-09-16 00:52:00,
2013-09-15 20:12:00,66.0,61.0,30.08,South,173,0.0,0.0,84,0.00,,,0.20,,2013-09-16 01:12:00,
2013-09-15 20:21:00,66.0,61.0,30.09,South,173,0.0,0.0,84,0.00,,,0.20,,2013-09-16 01:21:00,
2013-09-15 20:42:00,66.0,61.0,30.10,South,173,0.0,0.0,84,0.00,,,0.20,,2013-09-16 01:42:00,
2013-09-15 20:52:00,65.0,60.0,30.11,South,171,0.0,0.0,83,0.00,,,0.20,,2013-09-16 01:52:00,
2013-09-15 21:12:00,65.0,59.0,30.11,South,171,0.0,0.0,82,0.00,,,0.20,,2013-09-16 02:12:00,
2013-09-15 21:22:00,65.0,60.0,30.11,South,171,0.0,0.0,83,0.00,,,0.20,,2013-09-16 02:22:00,
2013-09-15 21:42:00,64.0,59.0,30.11,South,171,0.0,0.0,84,0.00,,,0.20,,2013-09-16 02:42:00,
2013-09-15 21:52:00,64.0,59.0,30.11,South,171,0.0,0.0,84,0.00,,,0.20,,2013-09-16 02:52:00,
2013-09-15 22:11:00,63.0,58.0,30.12,South,170,0.0,0.0,85,0.00,,,0.20,,2013-09-16 03:11:00,
2013-09-15 22:22:00,63.0,58.0,30.10,SSE,168,0.0,0.0,85,0.00,,,0.20,,2013-09-16 03:22:00,
2013-09-15 22:54:00,63.0,59.0,30.11,SSE,168,0.0,0.0,86,0.00,,,0.20,,2013-09-16 03:54:00,
2013-09-15 23:14:00,63.0,59.0,30.12,SSE,167,0.0,0.0,86,0.00,,,0.20,,2013-09-16 04:14:00,
2013-09-15 23:24:00,63.0,59.0,30.12,SSE,166,0.0,0.0,86,0.00,,,0.20,,2013-09-16 04:24:00,
2013-09-15 23:54:00,63.0,58.0,30.16,SSE,166,0.0,0.0,85,0.00,,,0.20,,2013-09-16 04:54:00,